Flag for Germany Weather for the Past 2 Weeks in Pfaffenhofen an der Ilm, Bavaria, Germany

Now
46 °F

Light rain. Partly cloudy.


Feels Like: 46 °F
Forecast: 35 / 42 °F
Wind: 2 mph from North

Location: Ingolstadt Airport

Current Time: Feb 9, 2016 at 6:56:59 PM

Latest Report: Feb 9, 2016 at 6:20 PM


Visibility: N/A

Pressure: 29.24 "Hg

Humidity: 82%

Dew point: 41 °F

Location of Pfaffenhofen an der IlmLocation

Historic Weather in Pfaffenhofen an der Ilm — Graph

°F

Pfaffenhofen an der Ilm Temperature Yesterday

Maximum temperature yesterday: 57 °F (at 2:20 PM)
Minimum temperature yesterday: 37 °F (at 5:20 AM)
Average temperature yesterday: 45 °F

High & Low Weather Summary for the Past Weeks

 TemperatureHumidityPressure
High57 °F (Feb 8, 2:20 PM)100% (Jan 25, 7:00 PM)30.45 "Hg (Jan 25, 7:00 PM)
Low28 °F (Jan 26, 4:20 AM)44% (Feb 8, 2:20 PM)29.27 "Hg (Feb 9, 5:20 PM)
Average42 °F84%30.10 "Hg
* Reported Jan 25 5:20 PM — Feb 9 5:20 PM, Pfaffenhofen an der Ilm, Weather by CustomWeather, © 2016

Note: Actual official high and low records may vary slightly from our data, if they occured in-between our weather recording intervals... More about our weather records

Advertising

Pfaffenhofen an der Ilm Weather History for the Previous 24 Hours

 ConditionsComfort  
Time TempWeatherWind HumidityBarometerVisibility
5:20 PM
Tue, Feb 9
46 °FPartly sunny.3 mph82%29.27 "HgN/A
4:20 PM50 °FLight rain. Broken clouds.3 mph67%29.30 "HgN/A
3:20 PM50 °FBroken clouds.2 mph67%29.33 "HgN/A
2:20 PM52 °FPartly sunny.6 mph62%29.39 "HgN/A
1:20 PM50 °FPartly sunny.7 mph67%29.42 "HgN/A
12:20 PM48 °FBroken clouds.8 mph71%29.50 "HgN/A
11:20 AM46 °FLight rain. Partly sunny.6 mph76%29.59 "HgN/A
10:20 AM45 °FPartly sunny.7 mph81%29.62 "HgN/A
9:20 AM45 °FPartly sunny.3 mph81%29.65 "HgN/A
8:20 AM43 °FPartly sunny.6 mph81%29.68 "HgN/A
7:20 AM43 °FPartly cloudy.9 mph81%29.71 "HgN/A
6:20 AM45 °FPartly cloudy.13 mph76%29.71 "HgN/A
5:20 AM45 °FQuite cool.10 mph76%29.74 "HgN/A
4:20 AM43 °FQuite cool.12 mph87%29.74 "HgN/A
3:20 AM45 °FQuite cool.12 mph81%29.74 "HgN/A
2:20 AM43 °FQuite cool.8 mph87%29.77 "HgN/A
1:20 AM43 °FQuite cool.8 mph87%29.77 "HgN/A
12:20 AM43 °FQuite cool.10 mph87%29.74 "HgN/A
11:20 PM
Mon, Feb 8
43 °FQuite cool.9 mph87%29.74 "HgN/A
10:20 PM41 °FQuite cool.15 mph93%29.74 "Hg3 mi
9:20 PM43 °FQuite cool.18 mph81%29.74 "Hg4 mi
8:20 PM46 °FCool.18 mph82%29.71 "Hg3 mi
7:20 PM46 °FCool.21 mph87%29.65 "Hg1 mi
6:20 PM46 °FRain showers. Mostly cloudy.23 mph87%29.62 "Hg3 mi
Weather by CustomWeather, © 2016

See weather overviewHow to use our weather pages